FENGYUN 1C DEB, 30945

Orbit data source: Space-Track

FENGYUN 1C DEB, 30945 is space debris in SSO originally from a launch on Mon, 10 May 1999 UTC launched from the Taiyaun Space Center, China (TSC). Fengyun 1C debris stems from the Chinese weather satellite Fengyun-1C, which was intentionally destroyed by a Chinese anti-satellite missile in 2007. This event dramatically increased the amount of space debris, with thousands of trackable fragments posing hazards to satellites and human spaceflight. The Fengyun 1C debris cloud has become a focal point in discussions about space sustainability and the need for international regulations to prevent the creation of new debris.

Loading next visibility...
Identifier
30945, 1999-025BAK
Orbit
SSO
Country
Flag of CNCN / PRC
Related business
Manufacturer
Unknown
Mission
Spacecraft
Bus & Motor
Unknown
Mass
Unknown
Launch date (UTC)
1999-05-10 (27 years ago)
Launch vehicle
Unknown
Launch site
Taiyaun Space Center, China (TSC)
Object type
Payload
Rocket body
Debris
Shape & HBR
Unknown shape, 0.1 m
Radar Cross Section
Small (<0.1 m²)

Expand to show TLE details & history
Last TLE update: 2 days ago

TLE from 2 days ago
0 FENGYUN 1C DEB
1 30945U 99025BAK 26170.64529801  .00002340  00000-0  90028-3 0  9998
2 30945  99.3802 199.1726 0029159 211.5006 277.3590 14.31227193991386
Epoch: 2026-06-19T15:29Z
TLE epoch observation values (Epoch: 2026-06-19T15:29:13.748Z)
Latitude
50.62085°
Longitude
-109.45792°
Altitude
793.067 km
Speed
7.463 km/s
True Right ascension
02h 02m 52s
True Declination
50° 27' 11"
Sunlit
Object was in daylight at epoch
Visualization orbit readout
Latitude
Unknown
Longitude
Unknown
Altitude
Unknown
Speed
Unknown
Apparent Right ascension
Unknown
Apparent Declination
Unknown
Sunlit
N/A
Visualization observer readout
Local Sidereal Time
22:39:07
Azimuth
Unknown
Elevation
Unknown
Doppler factor
Unknown
Orbital elements
Apogee altitude
805.695 km
Perigee altitude
763.922 km
Semi-major axis
7,162.946 km
Eccentricity
0.00292
Inclination
99.3802°
RAAN
199.1726°
Arg. of periapsis
211.5006°
True anomaly
277.02746°
Mean anomaly
277.359°
Eccentric anomaly
277.19325°
Mean motion
3.58019 °/min
Orbital period
100.55 mins
BSTAR
0.00090028
Loading maneuver chart data...
Computing Atmospheric mass density...

Documentation

Showing up to 5 results
|